This is the latest recevied weather packets stored in our database for station/object W3JBS-2. If no packets are shown the sender has not sent any weather packets the latest 10 day(s).
| Time | Temp. | Humidity | Pressure | Rain* | Wind** | Luminosity | Snow |
|---|---|---|---|---|---|---|---|
| 1777288012 | 3.89° C | 89% | 1023.3 hPa | 0.25 mm | - | 1724 W/m² | - |
| 1777282613 | 2.78° C | 88% | 1022.5 hPa | 0 mm | - | 1749 W/m² | - |
| 1777280812 | 2.78° C | 88% | 1022.7 hPa | 0 mm | - | 1749 W/m² | - |
| 1777279912 | 3.33° C | 88% | 1022.7 hPa | 0 mm | - | 1749 W/m² | - |
| 1777275412 | 3.89° C | 88% | 1022.7 hPa | 0 mm | - | 1749 W/m² | - |
| 1777274512 | 3.89° C | 87% | 1022.5 hPa | 0 mm | - | 1749 W/m² | - |
| 1777273612 | 3.89° C | 87% | 1022.5 hPa | 0 mm | - | 1749 W/m² | - |
| 1777272712 | 3.89° C | 87% | 1022.6 hPa | 0 mm | - | 1749 W/m² | - |
| 1777271813 | 3.89° C | 87% | 1022.5 hPa | 0 mm | - | 1749 W/m² | - |
| 1777270013 | 3.89° C | 87% | 1022.5 hPa | 0 mm | - | 1749 W/m² | - |
| 1777269112 | 4.44° C | 87% | 1022.6 hPa | 0 mm | - | 1749 W/m² | - |
| 1777265512 | 5° C | 86% | 1022.6 hPa | 0.25 mm | - | 1749 W/m² | - |
| 1777264613 | 5° C | 86% | 1022.9 hPa | 0.25 mm | - | 1749 W/m² | - |
| 1777263712 | 5.56° C | 86% | 1023 hPa | 0.25 mm | - | 1747 W/m² | - |
| 1777262812 | 5.56° C | 86% | 1023 hPa | 0 mm | - | 1747 W/m² | - |
| 1777261912 | 5.56° C | 85% | 1023 hPa | 0 mm | - | 1747 W/m² | - |
| 1777259212 | 6.67° C | 84% | 1022.7 hPa | 0 mm | - | 1747 W/m² | - |
| 1777258313 | 6.67° C | 84% | 1022.6 hPa | 0 mm | - | 1746 W/m² | - |
| 1777257412 | 7.22° C | 84% | 1022.5 hPa | 0 mm | - | 1746 W/m² | - |
| 1777256512 | 7.78° C | 83% | 1022.5 hPa | 0 mm | - | 1747 W/m² | - |
| 1777255612 | 7.78° C | 83% | 1022.5 hPa | 0.25 mm | - | 1747 W/m² | - |
| 1777253812 | 7.78° C | 82% | 1022.1 hPa | 0.25 mm | - | 1747 W/m² | - |
| 1777252912 | 7.78° C | 81% | 1021.8 hPa | 0.25 mm | - | 1747 W/m² | - |
| 1777251112 | 8.33° C | 80% | 1021.6 hPa | 0 mm | - | 1746 W/m² | - |
| 1777249312 | 8.89° C | 77% | 1021.1 hPa | 0 mm | - | 1744 W/m² | - |
* Rain latest hour (hover to see other rain measurements)
** Current wind speed in m/s (hover to see current wind gust speed)